This is the latest recevied weather packets stored in our database for station/object JO1YDG-13. If no packets are shown the sender has not sent any weather packets the latest 1 day(s).
| Time | Temp. | Humidity | Pressure | Rain* | Wind** | Luminosity | Snow |
|---|---|---|---|---|---|---|---|
| 1778039584 | 18.33° C | 54% | 992.5 hPa | 0 mm | 0.89 m/s, 319° | - | - |
| 1778039284 | 17.78° C | 54% | 992.5 hPa | 0 mm | 0.89 m/s, 336° | - | - |
| 1778038984 | 17.78° C | 53% | 992.5 hPa | 0 mm | 1.34 m/s, 135° | - | - |
| 1778038684 | 17.78° C | 54% | 992.9 hPa | 0 mm | 2.24 m/s, 140° | - | - |
| 1778038384 | 18.33° C | 53% | 992.9 hPa | 0 mm | 1.34 m/s, 132° | - | - |
| 1778038083 | 17.78° C | 53% | 992.9 hPa | 0 mm | 0.89 m/s, 116° | - | - |
| 1778037783 | 17.78° C | 52% | 993 hPa | 0 mm | 1.34 m/s, 322° | - | - |
| 1778037483 | 17.78° C | 52% | 993 hPa | 0 mm | 1.34 m/s, 290° | - | - |
| 1778037183 | 17.78° C | 53% | 993.1 hPa | 0 mm | 0.89 m/s, 326° | - | - |
| 1778036883 | 17.22° C | 53% | 993.1 hPa | 0 mm | 0.89 m/s, 324° | - | - |
| 1778036584 | 17.22° C | 54% | 993.1 hPa | 0 mm | 0.89 m/s, 113° | - | - |
| 1778036284 | 17.22° C | 54% | 993.2 hPa | 0 mm | 1.34 m/s, 346° | - | - |
| 1778035984 | 17.22° C | 53% | 993.2 hPa | 0 mm | 1.34 m/s, 318° | - | - |
| 1778035683 | 17.22° C | 53% | 993.4 hPa | 0 mm | 2.24 m/s, 319° | - | - |
| 1778035385 | 17.22° C | 54% | 993.4 hPa | 0 mm | 0.89 m/s, 281° | - | - |
| 1778035085 | 16.67° C | 54% | 993.5 hPa | 0 mm | 0.89 m/s, 212° | - | - |
| 1778034784 | 17.22° C | 54% | 993.5 hPa | 0 mm | 0.89 m/s, 226° | - | - |
| 1778034483 | 17.22° C | 55% | 993.5 hPa | 0 mm | 1.34 m/s, 133° | - | - |
| 1778034183 | 17.22° C | 54% | 993.8 hPa | 0 mm | 1.34 m/s, 153° | - | - |
| 1778033885 | 17.22° C | 54% | 993.8 hPa | 0 mm | 0.89 m/s, 112° | - | - |
| 1778033585 | 17.22° C | 54% | 993.9 hPa | 0 mm | 1.34 m/s, 334° | - | - |
| 1778033284 | 16.67° C | 55% | 993.9 hPa | 0 mm | 0.89 m/s, 224° | - | - |
| 1778032984 | 16.67° C | 57% | 993.9 hPa | 0 mm | 0.89 m/s, 118° | - | - |
| 1778032684 | 16.11° C | 58% | 994.2 hPa | 0 mm | 0.89 m/s, 314° | - | - |
| 1778032384 | 16.11° C | 58% | 994.2 hPa | 0 mm | 0.89 m/s, 3° | - | - |
* Rain latest hour (hover to see other rain measurements)
** Current wind speed in m/s (hover to see current wind gust speed)